Wetbulb
56.11 56.50 56.84 56.78 56.74 56.54 56.33 56.37 56.82 57.04 57.18 57.10 57.05 56.92 56.84 56.79 56.61 56.52 56.52 56.52 56.52 56.47 56.29 56.20 55.90 55.22 54.24 52.85 52.99 52.85 52.58 52.34 52.10 52.12 51.99 51.43 50.73 50.02 49.48 49.41 49.60 49.49 49.28 48.89 47.34 45.84 44.54 43.36 43.44 43.50 43.30 42.76 40.23 38.27 36.62 35.14 34.50 34.29 34.01 33.26 32.58 32.33 32.47 32.65 32.18 31.83 31.73 31.89 32.29
55.52 55.87 56.45 57.11 57.01 56.59 56.14 55.98 56.34 56.70 56.92 57.10 57.28 57.10 56.92 56.88 56.70 56.52 56.30 56.25 56.43 56.29 55.98 55.44 54.57 53.99 53.26 52.22 52.63 52.63 52.40 52.16 51.84 51.94 51.98 51.73 50.92 50.01 49.49 49.47 49.72 49.58 48.98 48.05 46.63 45.49 44.40 43.23 43.51 43.30 42.75 42.02 39.47 37.21 35.46 34.50 34.48 34.33 33.73 32.49 32.33 32.68 33.19 33.41 32.80 32.46 32.20 32.21 32.28
55.53 55.72 56.19 56.63 56.54 56.35 56.20 55.94 56.13 55.99 56.03 56.52 56.92 57.01 57.01 56.92 56.79 56.52 56.25 56.03 55.53 55.08 54.72 54.50 53.55 52.96 52.36 51.60 52.27 52.49 52.34 52.14 51.94 51.94 51.96 51.77 51.19 50.48 49.77 49.46 49.31 49.19 48.71 47.43 46.23 45.31 44.62 43.80 43.79 43.47 42.88 41.71 39.23 37.21 35.52 33.94 34.47 34.39 33.72 32.54 32.97 33.43 33.90 34.04 32.94 32.63 32.69 32.80 32.68
55.05 55.42 55.78 56.14 56.02 56.04 56.19 56.41 56.07 55.99 56.11 56.79 55.80 56.07 56.79 56.87 56.52 56.07 55.44 54.45 53.82 53.55 53.65 53.82 53.32 52.78 52.32 52.03 51.92 52.01 52.12 52.42 52.08 51.97 51.87 51.71 51.17 50.53 49.95 49.47 48.57 48.00 47.38 46.32 45.40 44.87 44.39 43.82 43.81 43.76 43.13 41.66 39.25 37.68 36.46 35.01 34.80 34.56 34.00 33.00 33.41 33.65 33.78 33.97 33.27 33.31 33.43 33.17 32.66
54.53 55.35 56.04 56.33 56.10 56.25 56.49 56.64 56.33 56.29 56.47 56.74 56.48 56.53 56.39 56.03 55.12 54.36 53.87 53.65 54.05 53.69 52.92 52.11 52.69 52.69 52.36 51.94 51.43 51.31 51.57 51.91 52.30 52.06 51.60 51.23 50.69 50.24 49.75 49.15 48.13 47.25 46.27 45.14 44.58 44.18 43.92 43.51 43.70 43.64 42.99 41.43 40.21 38.72 37.11 35.75 35.21 34.47 33.88 33.59 33.67 33.83 33.90 34.04 33.65 33.69 33.71 33.48 32.69
54.36 54.92 55.63 56.31 55.97 56.30 56.62 56.67 56.27 56.45 56.82 57.01 56.70 56.44 56.04 55.59 54.64 54.10 53.83 54.14 53.60 52.07 50.85 50.94 51.97 52.19 51.69 50.79 50.75 50.89 51.06 51.16 51.59 51.51 51.18 50.63 50.11 49.46 48.84 48.22 47.59 46.75 45.71 44.58 43.93 43.46 43.23 43.41 43.55 43.10 42.37 41.43 40.16 38.41 36.86 36.47 35.82 34.83 34.03 33.76 33.64 33.80 33.98 34.08 33.96 33.96 33.79 33.41 32.55
54.26 54.71 55.16 55.57 55.67 56.12 56.35 56.05 56.10 56.41 56.82 57.10 56.43 56.07 55.76 55.32 54.55 53.83 53.55 54.05 52.79 51.17 50.45 52.05 52.27 51.95 51.31 50.28 50.54 50.67 50.81 50.82 50.80 50.60 50.35 50.11 49.50 48.80 48.18 47.60 46.88 46.18 45.40 44.49 43.66 43.21 43.15 43.48 43.46 43.01 42.44 41.73 39.90 37.95 37.05 38.20 36.71 35.42 34.50 33.82 33.64 33.77 33.84 33.61 33.85 34.03 33.82 33.18 32.65
53.33 53.95 54.62 55.17 55.49 55.72 55.77 55.33 55.65 56.06 56.43 56.62 56.12 55.80 55.48 54.99 54.09 53.46 53.10 53.06 51.85 50.95 50.85 52.19 51.24 50.96 50.84 50.58 50.80 50.81 50.65 50.37 50.09 49.73 49.44 49.46 48.63 47.92 47.34 47.07 46.41 45.75 45.01 44.48 43.89 43.39 43.24 43.55 43.63 43.20 42.44 41.22 39.78 38.24 37.38 37.81 36.86 35.87 34.97 34.13 33.76 33.57 33.45 33.36 33.49 33.82 33.85 33.32 32.92
52.31 52.93 53.69 54.60 55.18 55.41 55.27 54.97 55.38 55.70 56.02 55.94 55.80 55.48 54.98 54.45 53.55 52.87 52.38 51.89 51.26 50.63 50.53 51.65 50.61 50.36 50.50 50.59 50.64 50.62 50.42 50.10 49.39 48.87 48.60 48.39 47.56 46.94 46.58 46.45 45.97 45.53 44.95 44.59 44.10 43.60 43.24 43.40 43.76 43.41 42.52 41.27 40.09 38.86 37.85 37.43 37.18 36.49 35.60 34.70 34.01 33.42 33.01 32.85 33.03 33.32 33.39 33.32 33.04
52.41 52.63 53.04 53.99 54.43 54.70 54.83 54.80 55.07 55.38 55.52 55.39 54.89 54.62 54.40 54.35 53.32 52.61 52.02 51.76 50.54 50.13 50.26 50.97 50.40 50.19 50.21 50.22 50.29 50.22 50.06 49.82 49.21 48.64 48.24 48.13 47.52 47.05 46.76 46.59 46.15 45.66 45.11 44.53 44.17 43.64 43.28 43.31 43.66 43.19 42.21 41.07 40.16 39.06 38.00 37.56 37.54 36.88 36.17 35.82 34.47 33.31 32.49 32.17 32.49 32.82 33.07 33.27 32.84
52.27 52.46 53.00 53.90 53.72 53.86 54.08 54.18 54.58 54.85 54.85 54.68 53.60 53.15 53.15 53.51 52.38 51.57 50.90 50.05 49.51 49.37 49.63 50.41 50.23 50.11 50.09 50.02 49.96 49.98 49.91 49.76 49.12 48.63 48.13 48.02 47.87 47.54 47.11 47.03 46.59 45.96 45.16 44.35 43.94 43.54 43.27 43.39 43.35 42.49 41.34 40.38 39.58 38.49 37.77 37.68 37.69 37.08 36.15 35.54 34.52 33.41 32.48 31.92 31.94 32.26 32.67 32.88 32.40
52.18 52.23 52.55 53.18 52.96 53.06 53.15 53.38 53.92 53.96 53.60 52.97 52.26 51.90 51.81 52.12 50.90 50.14 49.41 48.34 48.65 48.83 49.22 49.96 50.03 50.08 50.10 50.07 50.03 49.94 49.71 49.15 48.76 48.34 48.06 48.08 47.93 47.77 47.56 47.25 46.81 46.10 45.16 44.14 43.72 43.49 43.40 43.36 43.05 41.83 40.44 39.26 38.85 38.24 37.75 37.61 37.59 36.96 35.97 34.88 34.42 33.86 33.11 32.07 31.87 32.17 32.64 32.71 32.39
51.96 52.02 51.93 52.07 52.02 52.21 52.39 52.80 53.07 52.89 52.39 51.58 51.27 51.18 51.13 50.68 49.64 49.15 48.83 48.02 48.60 49.00 49.34 49.57 49.79 49.97 50.13 50.05 49.96 49.48 48.91 48.39 48.13 48.05 47.93 47.96 47.80 47.59 47.34 47.12 46.63 45.92 45.03 44.05 43.59 43.54 43.58 43.41 42.80 41.63 40.16 38.84 38.50 38.26 38.05 37.86 37.66 36.98 36.11 35.08 34.67 34.37 33.75 32.67 32.31 32.48 32.79 32.97 32.89
51.21 51.30 51.35 51.22 51.35 51.76 52.17 52.26 52.44 52.08 51.50 50.59 50.46 50.46 50.10 49.02 48.84 48.88 48.96 48.56 49.17 49.51 49.44 49.24 49.50 49.91 50.08 49.71 49.55 48.99 48.38 48.15 47.90 47.70 47.46 47.43 47.18 46.93 46.76 46.63 46.28 45.66 44.90 44.09 43.60 43.55 43.50 43.41 42.67 41.55 40.22 38.81 38.42 38.28 38.30 38.33 38.17 37.59 36.78 35.89 35.41 34.73 34.07 33.53 33.07 32.94 33.06 33.25 33.40
50.27 50.45 50.54 50.59 51.00 51.58 51.94 51.58 51.90 51.45 50.69 50.01 49.78 49.56 49.20 48.70 48.65 48.92 49.23 49.40 49.65 49.71 49.58 49.20 49.40 49.61 49.60 49.12 48.97 48.49 48.02 47.76 47.55 47.30 46.98 46.65 46.26 45.96 45.88 45.97 45.80 45.26 44.59 43.88 43.56 43.47 43.47 43.33 42.50 41.47 40.40 39.16 38.60 38.39 38.30 38.41 38.54 38.16 37.50 36.69 36.20 35.53 34.87 34.33 33.84 33.68 33.76 33.82 33.75
49.33 49.51 49.69 50.19 50.82 51.27 51.45 51.27 51.54 50.96 50.24 49.96 48.97 48.52 48.57 48.70 48.43 48.70 49.23 49.83 49.77 49.65 49.45 49.25 49.19 49.05 48.82 48.54 48.28 47.97 47.59 47.21 46.96 46.67 46.29 45.87 45.48 45.06 44.88 45.06 44.88 44.53 43.87 43.33 43.14 43.17 43.25 43.21 42.29 41.39 40.57 39.67 39.13 38.68 38.35 38.27 38.51 38.34 37.80 37.25 36.71 36.38 35.95 35.44 34.91 34.54 34.34 34.34 34.22
48.43 48.70 49.15 49.96 50.41 50.68 50.82 50.91 51.09 50.69 50.01 49.29 48.07 48.02 48.43 48.57 48.34 48.70 49.45 50.14 49.90 49.32 48.79 48.47 48.87 48.75 48.47 48.32 48.06 47.88 47.54 47.04 46.70 46.36 46.11 45.73 45.05 44.46 44.12 44.29 44.03 43.46 42.80 42.52 42.51 42.58 42.56 42.55 41.73 41.07 40.61 39.99 39.39 38.84 38.47 38.23 38.32 38.18 37.83 37.46 37.04 36.91 36.96 36.96 36.09 35.25 34.69 34.54 34.52
47.44 47.89 48.70 49.65 50.10 50.19 50.14 50.14 50.23 49.92 49.29 48.43 47.80 47.75 47.98 48.34 48.11 48.47 49.32 50.02 49.52 48.68 47.88 47.34 47.90 48.22 48.18 47.91 47.72 47.71 47.62 47.08 46.69 46.47 46.34 45.85 45.05 44.46 43.99 43.90 43.35 42.48 41.80 41.84 41.90 41.84 41.68 41.34 40.78 40.58 40.41 40.06 39.47 38.93 38.45 38.10 38.09 37.97 37.89 37.68 37.39 37.23 37.24 37.22 36.34 35.51 34.85 34.49 34.89
47.03 47.53 48.25 49.29 49.69 49.78 49.69 49.69 49.51 48.93 48.11 47.26 47.08 46.90 46.94 47.17 47.66 48.52 49.14 49.00 48.69 48.11 47.39 46.90 46.85 46.94 47.19 47.29 47.18 47.38 47.41 46.98 46.51 46.25 46.13 45.67 45.04 44.50 44.16 43.82 42.63 41.70 41.13 41.36 41.28 41.15 40.90 40.52 40.14 40.16 40.03 39.84 39.34 38.83 38.42 38.07 37.99 37.92 37.78 37.60 37.33 37.07 36.82 36.45 35.72 35.10 34.80 34.66 35.16
47.03 47.71 48.34 49.11 49.20 49.11 48.97 48.79 48.16 47.48 46.81 46.22 45.95 46.09 46.36 46.54 47.57 48.38 48.47 47.53 47.17 46.85 46.54 46.14 45.34 44.94 45.17 45.93 46.26 46.46 46.62 46.56 46.05 45.84 45.54 45.26 44.67 44.16 43.82 43.39 41.92 41.04 40.73 40.72 40.43 40.18 40.01 39.73 39.78 39.74 39.74 39.54 39.08 38.62 38.16 37.94 37.89 37.68 37.50 37.32 37.04 36.59 36.10 35.51 34.98 34.59 34.51 34.67 35.19
45.90 46.58 47.12 47.53 47.57 47.53 47.30 46.99 46.27 45.63 45.18 44.91 44.87 45.41 46.31 47.48 47.53 47.53 47.12 46.23 45.65 45.20 44.71 44.17 43.68 43.55 43.79 44.82 45.01 45.01 45.19 45.56 45.22 45.21 45.09 44.71 44.12 43.60 43.13 42.66 41.21 40.58 40.35 40.14 39.68 39.27 39.07 39.10 39.29 39.38 39.41 39.40 39.14 38.58 38.09 37.89 37.78 37.55 37.23 37.09 36.63 35.89 35.13 34.49 34.34 34.14 34.13 34.36 34.82
44.86 45.22 45.27 45.27 45.36 45.36 45.14 44.68 43.96 43.60 43.56 43.51 43.88 45.41 46.85 46.90 46.32 45.82 45.28 44.57 43.90 43.41 43.00 42.51 42.29 42.52 43.16 43.93 43.91 43.75 43.85 44.33 44.33 44.41 44.37 43.99 43.31 42.80 42.38 41.83 40.55 40.12 39.84 39.49 38.75 38.43 38.45 38.53 38.82 39.00 39.10 39.08 37.68 37.62 38.09 38.14 37.90 37.31 36.70 36.22 35.43 34.58 33.82 33.42 33.40 33.38 33.30 33.36 33.67
43.05 42.91 42.69 42.64 43.32 43.96 43.83 42.47 41.88 42.02 42.25 42.43 43.38 44.60 45.28 44.74 44.16 43.40 42.68 42.19 42.33 42.06 41.75 41.34 41.61 41.93 42.26 42.59 42.76 42.83 42.86 42.87 42.83 43.01 42.89 42.25 41.58 41.11 40.65 40.49 39.99 39.63 39.32 38.81 36.94 37.00 37.71 37.70 37.68 37.84 37.70 37.04 36.07 36.94 38.16 38.30 37.87 37.04 35.99 35.04 34.03 33.33 32.98 32.94 33.00 32.94 32.94 33.00 33.18
39.83 39.96 40.19 40.46 41.10 41.38 41.38 40.79 40.93 41.16 41.39 41.44 41.80 42.08 42.13 41.77 41.19 40.56 40.07 39.94 40.35 40.40 40.58 41.02 41.71 41.45 40.96 40.90 41.35 41.66 41.72 41.34 40.83 40.47 40.16 39.40 39.20 38.95 38.78 38.97 39.09 39.00 38.63 38.04 36.63 36.95 37.59 37.32 36.27 35.95 35.98 35.64 36.51 37.46 38.06 37.53 36.53 35.97 35.33 34.33 33.21 32.83 32.84 32.84 32.61 32.78 33.05 33.07 33.29
37.79 38.69 39.33 39.38 39.70 39.89 40.11 40.12 40.43 40.44 40.17 39.58 39.32 39.24 39.19 39.02 38.62 38.45 38.45 38.46 38.64 38.91 39.33 40.09 40.35 39.72 39.09 39.19 39.56 39.78 39.80 39.46 38.70 37.94 37.20 36.72 36.92 37.20 37.61 38.17 38.34 38.43 38.56 38.70 39.97 40.74 40.82 39.84 38.06 36.87 36.17 36.42 37.37 37.75 37.15 35.40 35.15 35.28 35.20 34.34 33.45 32.88 32.61 32.44 32.58 32.84 33.25 33.52 33.76
37.20 37.97 38.38 38.20 38.84 39.25 39.44 39.30 39.17 38.95 38.45 37.92 37.92 37.98 38.02 37.67 37.45 37.51 37.52 37.52 37.12 37.03 37.03 37.18 37.61 38.17 38.40 37.82 37.81 37.71 37.51 37.23 36.85 37.01 37.18 37.04 36.87 37.17 37.55 37.92 38.26 38.15 38.45 40.06 41.86 42.77 42.94 42.50 41.24 39.47 37.78 36.96 37.32 36.91 35.78 34.14 34.60 34.63 34.33 33.81 33.36 32.84 32.49 32.57 32.85 33.13 33.51 34.12 34.26
37.30 37.30 37.03 37.21 38.12 38.35 38.08 37.63 37.55 37.42 37.24 36.98 37.17 37.22 37.00 36.51 36.65 36.71 36.58 36.17 35.32 34.87 34.74 35.02 35.98 37.84 38.77 36.81 36.75 36.45 36.07 35.75 36.50 37.19 37.63 37.51 37.26 37.23 37.25 37.30 37.76 37.94 38.76 41.14 42.95 43.72 44.02 43.93 43.23 41.73 39.64 37.16 36.86 35.74 34.46 33.88 33.64 33.38 33.12 32.71 32.70 32.66 32.69 32.92 33.19 33.52 33.91 34.20 34.33
37.12 36.49 36.09 37.08 37.31 36.82 36.28 36.15 36.52 36.48 36.26 36.18 36.14 35.92 35.66 35.45 35.69 35.65 35.24 34.70 34.14 33.96 34.00 34.12 35.47 36.42 36.59 35.66 35.62 35.28 34.93 34.85 36.49 37.20 37.50 37.36 37.32 37.12 37.00 36.98 37.07 37.98 39.84 42.52 43.81 44.45 44.76 44.84 44.32 43.36 41.40 38.19 35.76 34.32 33.44 33.06 32.93 32.72 32.38 32.17 32.39 32.43 32.42 32.51 33.12 33.46 33.51 33.43 33.76
36.18 36.00 36.24 37.23 36.19 35.48 35.21 35.53 35.53 35.23 35.00 34.80 34.85 34.82 34.74 34.67 34.63 34.50 34.32 34.03 33.96 33.67 33.33 33.03 34.51 34.55 34.12 34.11 33.68 33.42 33.48 33.87 35.75 36.67 36.93 36.53 36.30 36.20 36.22 36.37 36.59 38.24 40.74 43.51 44.41 44.93 45.23 45.40 45.14 44.58 43.15 40.29 35.85 33.42 32.50 32.71 32.63 32.44 32.13 32.13 32.55 32.62 32.53 32.70 32.57 32.70 32.94 33.02 33.25
35.61 36.29 36.79 36.38 35.26 34.72 34.46 34.23 33.79 33.62 33.59 34.04 33.97 34.00 34.01 34.01 33.93 33.85 33.76 33.51 32.80 32.51 32.32 31.92 32.85 32.99 32.60 32.06 31.85 31.94 32.20 32.48 34.48 35.65 36.05 35.70 35.26 35.36 35.81 36.48 35.74 37.27 40.28 44.03 44.76 45.27 45.62 45.79 45.71 45.40 44.28 42.07 36.97 33.61 31.93 31.70 31.88 32.01 32.22 32.36 32.27 32.31 32.37 32.51 32.33 32.56 33.02 33.18 33.04
35.35 35.98 36.17 35.46 34.46 33.74 33.07 32.36 32.15 32.34 32.81 33.58 33.56 33.67 33.81 33.45 33.00 32.55 32.00 31.45 31.64 32.40 32.63 31.32 31.56 31.21 30.45 29.94 30.33 30.57 30.81 31.15 32.33 33.73 34.90 35.35 36.08 35.82 34.98 34.33 33.96 35.85 39.48 44.11 44.80 45.36 45.75 45.97 45.97 45.66 44.84 43.27 37.93 33.82 31.37 31.29 31.65 31.92 32.08 32.40 32.16 32.35 32.68 32.61 32.51 32.79 33.00 32.84 32.90
34.73 35.32 35.46 34.93 33.45 32.24 31.41 30.98 31.30 31.72 32.18 32.69 33.06 33.06 32.70 31.80 30.74 30.02 29.92 30.64 31.40 31.64 31.41 30.79 30.66 30.13 29.52 29.15 29.17 29.25 29.52 30.09 30.82 32.05 33.48 34.81 34.84 34.32 33.46 32.64 32.28 34.44 38.44 43.60 44.54 45.18 45.53 45.83 45.83 45.65 45.00 43.90 38.56 33.75 30.63 30.84 30.79 31.02 31.40 31.76 31.90 32.08 32.45 32.96 32.52 32.39 32.61 32.83 32.83
34.11 34.53 34.63 33.92 32.31 31.08 30.47 30.48 30.90 31.35 31.85 32.18 32.18 31.87 31.20 30.02 29.30 28.98 29.34 30.46 30.54 30.17 29.74 29.89 29.86 29.53 29.04 28.51 28.54 28.66 28.98 29.84 31.07 32.58 33.89 34.58 33.98 33.14 32.40 32.16 31.27 34.17 38.77 42.93 43.99 44.67 45.13 45.43 45.56 45.51 45.12 44.37 38.49 33.32 30.12 30.29 30.45 30.50 30.57 30.80 31.21 31.76 32.20 32.41 32.18 32.25 32.44 32.72 32.56
33.73 33.82 33.48 32.73 31.65 30.73 30.21 30.21 30.66 31.21 31.54 31.36 30.95 30.50 29.96 29.48 29.40 29.43 29.55 30.03 28.98 27.87 27.11 27.06 27.13 27.05 26.97 27.03 27.81 28.75 29.92 31.44 30.50 30.26 30.77 32.07 32.25 32.01 31.43 30.42 30.44 34.54 39.43 42.30 43.44 44.20 44.70 45.08 45.33 45.41 45.16 44.54 37.90 32.77 29.82 29.82 30.13 30.35 30.41 30.63 31.33 32.08 32.63 32.55 32.27 32.30 32.37 32.42 32.13
33.70 33.54 32.70 31.61 30.96 30.53 30.24 30.07 30.61 31.06 31.12 30.63 29.81 29.14 28.65 28.25 28.05 28.25 29.13 30.82 29.39 27.41 25.80 25.34 25.21 25.40 25.81 26.30 27.23 28.73 29.95 30.30 28.64 28.43 29.19 30.26 31.08 31.36 30.97 29.80 30.33 34.74 39.50 41.81 42.94 43.77 44.40 44.95 45.20 45.37 45.04 43.30 36.54 32.08 29.77 29.75 30.09 30.38 30.78 31.31 32.04 32.36 32.45 32.42 32.28 32.18 32.04 31.96 31.56
33.73 33.44 32.42 31.07 30.37 30.08 30.04 30.19 30.59 30.73 30.51 29.84 28.99 28.26 27.51 26.76 26.27 26.97 28.87 31.77 29.65 27.53 26.05 25.53 25.67 26.00 26.43 26.70 27.42 29.11 30.04 28.25 28.10 28.27 28.97 30.23 30.50 30.20 29.53 28.72 29.64 34.12 39.09 41.56 42.65 43.48 44.19 44.78 45.11 45.41 44.46 41.05 35.03 31.90 30.82 30.77 30.93 31.26 31.69 32.04 32.38 32.46 32.46 32.38 32.09 31.80 31.43 31.05 30.58
33.34 33.29 32.44 31.22 30.33 29.92 29.89 30.29 30.61 30.35 29.72 28.77 27.98 27.30 26.68 26.26 26.07 26.77 28.36 30.54 28.07 26.82 26.23 25.57 25.98 26.10 26.14 26.21 26.59 27.49 28.12 27.72 28.27 28.98 29.99 31.33 30.72 29.88 29.04 28.49 28.30 32.25 37.46 41.37 42.40 43.32 44.02 44.65 45.20 45.09 43.20 37.93 33.96 32.39 32.10 32.02 32.23 32.38 32.48 32.51 32.73 32.73 32.66 32.48 32.12 31.46 30.63 29.58 29.71
32.50 32.87 32.53 31.56 30.68 30.03 29.84 30.22 30.40 29.83 28.75 27.66 26.66 25.85 25.39 25.60 25.76 26.82 28.33 30.46 27.43 26.41 26.20 25.58 25.32 24.86 24.61 25.00 25.89 26.29 26.70 27.78 29.13 29.57 29.83 30.51 30.15 29.53 29.01 28.76 28.16 30.70 35.33 40.59 42.22 43.27 44.03 44.70 45.33 44.88 42.26 35.93 34.22 33.78 33.77 32.95 32.69 32.74 32.83 32.83 33.03 32.75 32.28 31.85 31.14 30.35 29.66 29.26 32.37
31.84 32.39 32.46 31.79 30.90 30.24 29.83 29.74 29.60 28.94 28.05 27.11 26.29 25.65 25.27 25.31 25.58 26.84 28.19 28.88 26.07 25.47 25.72 25.36 24.67 24.51 25.21 26.96 26.81 26.62 26.69 27.26 29.06 29.87 29.74 29.13 29.66 30.47 30.66 29.26 28.84 30.56 34.41 39.80 41.99 43.19 44.07 44.83 45.33 45.18 43.11 37.62 35.42 34.82 34.41 32.95 32.23 31.96 31.91 31.86 32.21 31.85 31.00 29.83 29.16 28.77 28.61 29.16 35.21
31.22 31.77 32.01 31.55 31.02 30.50 29.93 29.19 28.53 27.93 27.40 26.89 26.42 25.97 25.87 26.52 27.11 27.71 27.51 25.92 24.60 24.44 24.78 24.70 24.59 25.63 27.60 29.94 27.43 26.20 25.86 25.99 26.82 28.34 29.68 29.95 31.00 32.99 33.51 30.20 29.25 30.66 34.07 39.22 41.68 43.06 43.99 44.83 45.33 45.19 43.00 37.30 34.77 34.22 33.94 32.53 31.72 31.18 30.77 30.45 30.76 30.55 29.83 28.36 27.39 27.21 27.48 27.93 33.15
30.65 31.14 31.48 31.30 30.75 30.35 29.80 28.80 27.75 27.04 26.64 26.53 26.23 26.49 27.12 28.00 27.01 26.18 25.32 24.28 24.26 24.57 24.89 25.19 25.38 26.63 28.44 30.14 27.37 26.07 25.72 25.69 25.78 27.12 29.03 31.01 31.96 33.96 34.37 30.72 29.51 29.93 32.23 36.50 40.39 42.62 43.78 44.54 45.13 44.97 42.69 36.93 33.77 33.09 33.14 32.45 32.00 31.33 30.61 29.80 29.39 29.34 29.25 28.42 27.71 27.57 27.71 28.00 28.78
MSLP
1011.55 1011.75 1011.95 1012.15 1012.43 1012.67 1012.87 1013.07 1013.27 1013.43 1013.59 1013.79 1013.99 1014.15 1014.35 1014.55 1014.71 1014.87 1014.99 1015.15 1015.27 1015.39 1015.47 1015.55 1015.71 1015.83 1015.99 1016.15 1016.31 1016.47 1016.63 1016.75 1016.87 1016.99 1017.15 1017.27 1017.47 1017.67 1017.87 1018.11 1018.27 1018.47 1018.67 1018.87 1019.15 1019.47 1019.79 1020.03 1020.23 1020.43 1020.67 1020.87 1020.99 1021.15 1021.27 1021.27 1021.31 1021.35 1021.47 1021.67 1021.83 1022.07 1022.27 1022.51 1022.71 1022.91 1023.03 1023.19 1023.27
1011.51 1011.71 1011.87 1012.11 1012.35 1012.59 1012.87 1013.07 1013.27 1013.43 1013.55 1013.71 1013.83 1013.99 1014.15 1014.35 1014.51 1014.71 1014.87 1014.99 1015.07 1015.15 1015.27 1015.47 1015.55 1015.75 1015.95 1016.07 1016.19 1016.31 1016.47 1016.63 1016.79 1016.95 1017.03 1017.19 1017.35 1017.55 1017.79 1017.99 1018.15 1018.35 1018.55 1018.79 1019.11 1019.43 1019.71 1019.99 1020.27 1020.51 1020.71 1020.91 1021.07 1021.23 1021.39 1021.43 1021.43 1021.43 1021.51 1021.67 1021.79 1021.99 1022.19 1022.43 1022.59 1022.75 1022.91 1023.03 1023.15
1011.47 1011.67 1011.83 1012.07 1012.31 1012.59 1012.87 1013.07 1013.27 1013.43 1013.55 1013.63 1013.71 1013.87 1014.07 1014.23 1014.39 1014.55 1014.71 1014.83 1014.91 1015.07 1015.27 1015.43 1015.55 1015.67 1015.83 1015.95 1016.07 1016.23 1016.35 1016.51 1016.67 1016.83 1016.99 1017.15 1017.31 1017.55 1017.75 1017.91 1018.15 1018.27 1018.43 1018.71 1019.11 1019.43 1019.71 1019.99 1020.19 1020.43 1020.63 1020.83 1020.99 1021.15 1021.31 1021.51 1021.55 1021.55 1021.55 1021.63 1021.71 1021.91 1022.15 1022.31 1022.51 1022.67 1022.79 1022.91 1023.03
1011.43 1011.63 1011.83 1011.99 1012.23 1012.51 1012.71 1012.91 1013.15 1013.27 1013.43 1013.55 1013.67 1013.83 1013.99 1014.15 1014.27 1014.43 1014.55 1014.75 1014.91 1015.07 1015.19 1015.27 1015.43 1015.55 1015.71 1015.83 1015.99 1016.15 1016.27 1016.39 1016.55 1016.71 1016.95 1017.15 1017.35 1017.51 1017.67 1017.83 1018.03 1018.27 1018.43 1018.71 1019.07 1019.39 1019.67 1019.95 1020.15 1020.27 1020.43 1020.63 1020.83 1020.99 1021.15 1021.35 1021.51 1021.59 1021.55 1021.59 1021.67 1021.83 1021.99 1022.19 1022.35 1022.51 1022.67 1022.79 1022.87
1011.43 1011.55 1011.71 1011.91 1012.11 1012.31 1012.55 1012.71 1012.95 1013.15 1013.27 1013.43 1013.63 1013.83 1013.99 1014.11 1014.27 1014.43 1014.59 1014.79 1014.87 1014.95 1015.03 1015.15 1015.27 1015.43 1015.59 1015.75 1015.95 1016.11 1016.23 1016.35 1016.51 1016.67 1016.87 1017.15 1017.27 1017.43 1017.55 1017.75 1017.99 1018.23 1018.43 1018.71 1019.03 1019.31 1019.55 1019.83 1019.99 1020.15 1020.27 1020.43 1020.55 1020.71 1020.87 1021.15 1021.39 1021.55 1021.63 1021.67 1021.67 1021.71 1021.87 1022.11 1022.27 1022.39 1022.47 1022.63 1022.75
1011.39 1011.51 1011.63 1011.83 1011.99 1012.23 1012.43 1012.59 1012.79 1012.99 1013.15 1013.39 1013.59 1013.79 1013.95 1014.11 1014.23 1014.39 1014.51 1014.67 1014.71 1014.83 1014.95 1015.11 1015.23 1015.43 1015.55 1015.75 1015.91 1016.07 1016.19 1016.35 1016.43 1016.63 1016.87 1017.03 1017.15 1017.31 1017.47 1017.71 1017.87 1018.15 1018.43 1018.71 1018.95 1019.15 1019.39 1019.63 1019.83 1019.99 1020.15 1020.27 1020.43 1020.55 1020.71 1020.95 1021.19 1021.43 1021.63 1021.75 1021.79 1021.79 1021.83 1021.99 1022.11 1022.27 1022.39 1022.55 1022.71
1011.27 1011.43 1011.59 1011.79 1011.95 1012.15 1012.31 1012.51 1012.71 1012.91 1013.11 1013.27 1013.47 1013.67 1013.83 1013.99 1014.15 1014.23 1014.31 1014.43 1014.59 1014.83 1014.99 1015.15 1015.23 1015.39 1015.55 1015.71 1015.83 1015.99 1016.15 1016.27 1016.43 1016.59 1016.79 1016.99 1017.15 1017.27 1017.47 1017.71 1017.95 1018.19 1018.43 1018.59 1018.83 1019.03 1019.27 1019.43 1019.63 1019.83 1019.99 1020.15 1020.31 1020.55 1020.71 1020.79 1021.03 1021.35 1021.59 1021.79 1021.83 1021.83 1021.87 1021.99 1022.03 1022.15 1022.31 1022.51 1022.63
1011.19 1011.35 1011.51 1011.71 1011.87 1012.07 1012.27 1012.43 1012.67 1012.87 1013.07 1013.23 1013.43 1013.51 1013.63 1013.75 1013.91 1014.07 1014.23 1014.39 1014.59 1014.79 1014.95 1015.03 1015.15 1015.27 1015.43 1015.59 1015.75 1015.91 1016.07 1016.23 1016.43 1016.59 1016.75 1016.95 1017.15 1017.35 1017.55 1017.83 1018.03 1018.23 1018.39 1018.51 1018.71 1018.99 1019.19 1019.35 1019.51 1019.71 1019.87 1020.03 1020.23 1020.43 1020.59 1020.71 1020.95 1021.23 1021.51 1021.75 1021.91 1021.99 1021.99 1021.99 1022.03 1022.15 1022.27 1022.47 1022.63
1011.27 1011.39 1011.55 1011.71 1011.87 1012.03 1012.19 1012.39 1012.59 1012.83 1012.99 1013.15 1013.27 1013.39 1013.51 1013.63 1013.83 1013.99 1014.19 1014.39 1014.55 1014.71 1014.87 1014.95 1015.11 1015.23 1015.39 1015.55 1015.71 1015.83 1015.99 1016.15 1016.39 1016.55 1016.75 1016.95 1017.15 1017.39 1017.59 1017.79 1017.95 1018.15 1018.31 1018.51 1018.71 1018.95 1019.15 1019.31 1019.47 1019.59 1019.75 1019.95 1020.15 1020.39 1020.55 1020.71 1020.95 1021.19 1021.43 1021.71 1021.87 1021.99 1021.99 1022.03 1022.07 1022.15 1022.31 1022.51 1022.71
1011.35 1011.47 1011.59 1011.75 1011.87 1012.03 1012.23 1012.43 1012.55 1012.75 1012.91 1013.07 1013.19 1013.35 1013.47 1013.67 1013.83 1013.99 1014.15 1014.27 1014.47 1014.67 1014.83 1014.91 1015.07 1015.23 1015.39 1015.51 1015.63 1015.79 1015.95 1016.11 1016.31 1016.55 1016.71 1016.91 1017.15 1017.35 1017.55 1017.79 1017.95 1018.15 1018.35 1018.55 1018.75 1018.95 1019.11 1019.27 1019.35 1019.47 1019.67 1019.83 1020.11 1020.35 1020.59 1020.75 1020.95 1021.19 1021.43 1021.59 1021.75 1021.91 1022.03 1022.11 1022.15 1022.23 1022.35 1022.51 1022.67
1011.31 1011.43 1011.59 1011.75 1011.91 1012.03 1012.23 1012.47 1012.63 1012.79 1012.91 1013.07 1013.23 1013.43 1013.55 1013.71 1013.83 1013.99 1014.11 1014.27 1014.51 1014.71 1014.79 1014.87 1015.03 1015.19 1015.35 1015.47 1015.59 1015.71 1015.87 1016.11 1016.27 1016.51 1016.71 1016.95 1017.11 1017.35 1017.55 1017.79 1017.99 1018.15 1018.35 1018.55 1018.75 1018.95 1019.11 1019.19 1019.27 1019.43 1019.63 1019.87 1020.07 1020.31 1020.55 1020.75 1020.91 1021.11 1021.27 1021.43 1021.59 1021.83 1021.99 1022.15 1022.23 1022.27 1022.35 1022.47 1022.67
1011.27 1011.43 1011.55 1011.71 1011.87 1012.07 1012.27 1012.51 1012.67 1012.83 1012.99 1013.15 1013.27 1013.43 1013.59 1013.71 1013.83 1013.99 1014.15 1014.35 1014.55 1014.67 1014.75 1014.83 1014.99 1015.15 1015.27 1015.39 1015.55 1015.71 1015.91 1016.07 1016.27 1016.47 1016.71 1016.87 1017.11 1017.31 1017.55 1017.75 1017.95 1018.15 1018.31 1018.51 1018.71 1018.87 1018.99 1019.15 1019.27 1019.43 1019.63 1019.83 1020.03 1020.23 1020.43 1020.59 1020.75 1020.91 1021.11 1021.27 1021.51 1021.71 1021.95 1022.15 1022.23 1022.27 1022.31 1022.43 1022.63
1011.23 1011.43 1011.55 1011.71 1011.91 1012.15 1012.31 1012.51 1012.71 1012.87 1012.99 1013.15 1013.27 1013.43 1013.55 1013.71 1013.83 1013.99 1014.15 1014.35 1014.47 1014.59 1014.71 1014.87 1014.95 1015.07 1015.23 1015.35 1015.55 1015.71 1015.91 1016.03 1016.23 1016.43 1016.59 1016.83 1017.07 1017.27 1017.51 1017.71 1017.91 1018.11 1018.27 1018.43 1018.63 1018.79 1018.91 1019.07 1019.19 1019.39 1019.59 1019.83 1019.99 1020.11 1020.19 1020.35 1020.51 1020.71 1020.95 1021.19 1021.39 1021.55 1021.75 1021.91 1022.03 1022.15 1022.27 1022.43 1022.59
1011.23 1011.43 1011.59 1011.79 1011.99 1012.15 1012.39 1012.55 1012.71 1012.87 1013.03 1013.19 1013.31 1013.43 1013.55 1013.71 1013.87 1013.99 1014.15 1014.31 1014.43 1014.55 1014.71 1014.87 1014.99 1015.07 1015.19 1015.31 1015.47 1015.71 1015.87 1015.99 1016.15 1016.39 1016.59 1016.79 1016.99 1017.19 1017.43 1017.63 1017.83 1017.99 1018.19 1018.39 1018.55 1018.71 1018.83 1018.99 1019.15 1019.27 1019.51 1019.71 1019.87 1019.99 1020.11 1020.23 1020.31 1020.47 1020.71 1020.95 1021.15 1021.27 1021.43 1021.59 1021.75 1021.95 1022.15 1022.39 1022.55
1011.35 1011.51 1011.67 1011.83 1012.03 1012.23 1012.39 1012.59 1012.71 1012.87 1013.03 1013.19 1013.31 1013.43 1013.55 1013.75 1013.87 1013.99 1014.15 1014.27 1014.43 1014.55 1014.71 1014.87 1014.99 1015.07 1015.15 1015.31 1015.43 1015.63 1015.83 1015.99 1016.15 1016.35 1016.55 1016.75 1016.95 1017.15 1017.27 1017.51 1017.71 1017.87 1018.07 1018.27 1018.47 1018.63 1018.75 1018.87 1018.99 1019.19 1019.39 1019.59 1019.79 1019.95 1020.07 1020.15 1020.23 1020.35 1020.51 1020.67 1020.87 1020.99 1021.15 1021.31 1021.51 1021.75 1021.99 1022.27 1022.43
1011.43 1011.59 1011.75 1011.91 1012.07 1012.27 1012.43 1012.59 1012.71 1012.87 1013.03 1013.15 1013.27 1013.43 1013.59 1013.75 1013.91 1013.99 1014.15 1014.27 1014.43 1014.55 1014.67 1014.83 1014.95 1015.07 1015.19 1015.31 1015.43 1015.63 1015.83 1015.99 1016.15 1016.31 1016.51 1016.67 1016.87 1017.03 1017.19 1017.35 1017.55 1017.75 1017.99 1018.19 1018.43 1018.59 1018.71 1018.83 1018.99 1019.11 1019.27 1019.47 1019.71 1019.83 1019.99 1020.15 1020.23 1020.35 1020.47 1020.59 1020.71 1020.87 1020.99 1021.15 1021.35 1021.59 1021.83 1022.07 1022.19
1011.51 1011.67 1011.83 1011.99 1012.11 1012.27 1012.43 1012.55 1012.71 1012.87 1012.99 1013.15 1013.31 1013.43 1013.59 1013.71 1013.87 1013.99 1014.11 1014.23 1014.39 1014.55 1014.67 1014.71 1014.87 1014.99 1015.15 1015.31 1015.47 1015.63 1015.83 1015.99 1016.15 1016.27 1016.43 1016.55 1016.71 1016.91 1017.11 1017.27 1017.47 1017.71 1017.91 1018.15 1018.35 1018.51 1018.71 1018.87 1018.99 1019.15 1019.27 1019.47 1019.67 1019.83 1019.99 1020.15 1020.27 1020.43 1020.55 1020.67 1020.75 1020.83 1020.91 1021.03 1021.23 1021.47 1021.71 1021.83 1021.95
1011.63 1011.75 1011.87 1011.99 1012.15 1012.27 1012.43 1012.55 1012.71 1012.83 1012.99 1013.15 1013.27 1013.43 1013.55 1013.67 1013.83 1013.99 1014.07 1014.15 1014.31 1014.47 1014.59 1014.71 1014.83 1014.99 1015.15 1015.31 1015.47 1015.59 1015.71 1015.91 1016.03 1016.15 1016.27 1016.43 1016.63 1016.87 1017.03 1017.23 1017.43 1017.63 1017.83 1018.11 1018.27 1018.47 1018.67 1018.83 1018.99 1019.15 1019.35 1019.51 1019.67 1019.83 1019.99 1020.15 1020.31 1020.43 1020.59 1020.71 1020.79 1020.87 1020.91 1020.99 1021.11 1021.27 1021.47 1021.63 1021.71
1011.71 1011.83 1011.91 1012.03 1012.15 1012.27 1012.35 1012.51 1012.63 1012.79 1012.95 1013.11 1013.27 1013.43 1013.55 1013.71 1013.83 1013.95 1014.07 1014.15 1014.27 1014.39 1014.55 1014.75 1014.91 1014.99 1015.15 1015.27 1015.43 1015.51 1015.63 1015.75 1015.91 1016.03 1016.19 1016.39 1016.59 1016.79 1016.99 1017.19 1017.43 1017.63 1017.83 1017.99 1018.19 1018.43 1018.59 1018.79 1018.95 1019.15 1019.31 1019.55 1019.71 1019.83 1019.99 1020.15 1020.31 1020.43 1020.55 1020.71 1020.75 1020.83 1020.87 1020.91 1020.99 1021.15 1021.27 1021.43 1021.55
1011.71 1011.83 1011.91 1011.99 1012.11 1012.23 1012.35 1012.51 1012.63 1012.79 1012.99 1013.15 1013.27 1013.43 1013.59 1013.71 1013.79 1013.91 1014.07 1014.19 1014.27 1014.43 1014.55 1014.79 1014.99 1015.11 1015.15 1015.27 1015.35 1015.47 1015.55 1015.71 1015.87 1016.03 1016.23 1016.43 1016.63 1016.83 1016.99 1017.19 1017.43 1017.67 1017.83 1017.99 1018.15 1018.35 1018.55 1018.71 1018.87 1019.07 1019.27 1019.47 1019.67 1019.83 1019.99 1020.15 1020.27 1020.43 1020.55 1020.67 1020.71 1020.75 1020.83 1020.87 1020.99 1021.07 1021.19 1021.35 1021.43
1011.71 1011.83 1011.87 1011.99 1012.15 1012.27 1012.43 1012.55 1012.71 1012.87 1013.03 1013.19 1013.35 1013.51 1013.59 1013.71 1013.83 1013.95 1014.07 1014.19 1014.39 1014.55 1014.71 1014.87 1014.99 1015.11 1015.23 1015.31 1015.43 1015.55 1015.67 1015.75 1015.95 1016.11 1016.27 1016.47 1016.67 1016.83 1016.99 1017.19 1017.43 1017.67 1017.87 1017.99 1018.15 1018.31 1018.51 1018.67 1018.83 1018.99 1019.19 1019.39 1019.55 1019.71 1019.91 1020.07 1020.19 1020.35 1020.47 1020.55 1020.63 1020.71 1020.79 1020.87 1020.99 1021.07 1021.19 1021.31 1021.39
1011.83 1011.87 1011.99 1012.11 1012.27 1012.39 1012.55 1012.71 1012.87 1012.99 1013.15 1013.31 1013.43 1013.55 1013.67 1013.83 1013.91 1014.03 1014.15 1014.31 1014.51 1014.67 1014.79 1014.91 1015.03 1015.15 1015.23 1015.35 1015.51 1015.63 1015.75 1015.87 1016.03 1016.15 1016.31 1016.51 1016.67 1016.79 1016.95 1017.15 1017.39 1017.63 1017.83 1017.99 1018.15 1018.31 1018.43 1018.59 1018.75 1018.95 1019.11 1019.27 1019.47 1019.63 1019.79 1019.95 1020.07 1020.23 1020.35 1020.43 1020.55 1020.67 1020.79 1020.87 1020.99 1021.07 1021.19 1021.27 1021.35
1011.91 1011.99 1012.15 1012.27 1012.39 1012.51 1012.63 1012.83 1012.95 1013.11 1013.27 1013.43 1013.55 1013.63 1013.75 1013.91 1013.99 1014.15 1014.31 1014.47 1014.59 1014.71 1014.87 1014.99 1015.11 1015.23 1015.35 1015.43 1015.55 1015.71 1015.83 1015.99 1016.15 1016.27 1016.35 1016.51 1016.67 1016.83 1016.95 1017.11 1017.31 1017.55 1017.79 1017.99 1018.15 1018.27 1018.43 1018.59 1018.79 1018.91 1019.07 1019.27 1019.43 1019.55 1019.71 1019.83 1019.99 1020.15 1020.27 1020.39 1020.51 1020.67 1020.79 1020.87 1020.99 1021.03 1021.15 1021.27 1021.31
1012.03 1012.15 1012.27 1012.39 1012.47 1012.63 1012.75 1012.91 1013.03 1013.19 1013.39 1013.51 1013.63 1013.71 1013.83 1013.99 1014.15 1014.27 1014.43 1014.55 1014.67 1014.79 1014.91 1015.07 1015.19 1015.31 1015.43 1015.55 1015.67 1015.75 1015.91 1016.11 1016.27 1016.39 1016.51 1016.63 1016.75 1016.87 1017.03 1017.19 1017.35 1017.55 1017.71 1017.91 1018.07 1018.27 1018.43 1018.59 1018.79 1018.95 1019.11 1019.27 1019.39 1019.51 1019.59 1019.75 1019.87 1020.03 1020.19 1020.35 1020.51 1020.67 1020.79 1020.87 1020.99 1021.03 1021.15 1021.23 1021.27
1012.15 1012.27 1012.35 1012.51 1012.63 1012.71 1012.87 1013.03 1013.15 1013.31 1013.47 1013.59 1013.71 1013.83 1013.99 1014.15 1014.27 1014.39 1014.51 1014.67 1014.79 1014.91 1015.03 1015.15 1015.27 1015.43 1015.55 1015.71 1015.79 1015.87 1015.99 1016.15 1016.31 1016.47 1016.63 1016.75 1016.87 1016.99 1017.15 1017.27 1017.43 1017.55 1017.71 1017.87 1017.99 1018.11 1018.27 1018.47 1018.71 1018.91 1019.11 1019.23 1019.35 1019.43 1019.55 1019.71 1019.83 1019.99 1020.11 1020.27 1020.43 1020.63 1020.75 1020.87 1020.99 1021.07 1021.11 1021.15 1021.23
1012.23 1012.35 1012.47 1012.59 1012.75 1012.87 1012.99 1013.15 1013.27 1013.43 1013.55 1013.71 1013.83 1013.99 1014.11 1014.23 1014.39 1014.51 1014.67 1014.83 1014.99 1015.07 1015.15 1015.27 1015.43 1015.55 1015.67 1015.79 1015.91 1016.03 1016.15 1016.27 1016.35 1016.47 1016.63 1016.83 1016.95 1017.07 1017.19 1017.27 1017.43 1017.59 1017.75 1017.83 1017.91 1017.99 1018.19 1018.39 1018.59 1018.83 1018.99 1019.19 1019.31 1019.43 1019.55 1019.75 1019.83 1019.95 1020.07 1020.23 1020.43 1020.55 1020.71 1020.87 1020.99 1021.03 1021.11 1021.15 1021.15
1012.35 1012.51 1012.63 1012.71 1012.87 1012.99 1013.15 1013.27 1013.39 1013.51 1013.67 1013.79 1013.99 1014.11 1014.23 1014.35 1014.47 1014.63 1014.79 1014.95 1015.11 1015.23 1015.31 1015.43 1015.55 1015.63 1015.75 1015.83 1015.99 1016.15 1016.27 1016.35 1016.43 1016.55 1016.67 1016.83 1016.99 1017.15 1017.27 1017.35 1017.43 1017.59 1017.71 1017.79 1017.83 1017.99 1018.15 1018.31 1018.51 1018.71 1018.95 1019.15 1019.27 1019.43 1019.55 1019.71 1019.83 1019.99 1020.15 1020.27 1020.39 1020.55 1020.67 1020.79 1020.87 1020.99 1021.03 1021.11 1021.15
1012.47 1012.63 1012.71 1012.83 1012.99 1013.15 1013.27 1013.39 1013.51 1013.67 1013.83 1013.95 1014.07 1014.19 1014.35 1014.43 1014.59 1014.79 1014.95 1015.11 1015.23 1015.35 1015.47 1015.59 1015.67 1015.71 1015.83 1015.99 1016.15 1016.27 1016.39 1016.43 1016.55 1016.59 1016.71 1016.87 1016.99 1017.15 1017.27 1017.43 1017.51 1017.59 1017.71 1017.75 1017.83 1017.95 1018.07 1018.27 1018.43 1018.59 1018.83 1019.07 1019.23 1019.39 1019.55 1019.71 1019.87 1019.99 1020.15 1020.27 1020.39 1020.47 1020.59 1020.71 1020.75 1020.83 1020.91 1020.99 1020.99
1012.55 1012.71 1012.87 1012.99 1013.19 1013.31 1013.43 1013.55 1013.67 1013.79 1013.95 1014.11 1014.19 1014.31 1014.47 1014.63 1014.79 1014.95 1015.07 1015.23 1015.35 1015.51 1015.63 1015.79 1015.79 1015.87 1015.99 1016.19 1016.27 1016.43 1016.51 1016.59 1016.63 1016.71 1016.83 1016.99 1017.07 1017.23 1017.35 1017.47 1017.55 1017.63 1017.71 1017.75 1017.83 1017.91 1018.03 1018.19 1018.27 1018.43 1018.63 1018.91 1019.15 1019.39 1019.55 1019.71 1019.83 1019.99 1020.15 1020.27 1020.35 1020.43 1020.51 1020.59 1020.67 1020.71 1020.79 1020.83 1020.87
1012.63 1012.79 1012.95 1013.15 1013.31 1013.47 1013.59 1013.75 1013.87 1013.99 1014.11 1014.19 1014.27 1014.43 1014.59 1014.79 1014.95 1015.11 1015.23 1015.39 1015.55 1015.67 1015.79 1015.83 1015.91 1016.03 1016.19 1016.35 1016.47 1016.55 1016.67 1016.71 1016.71 1016.79 1016.91 1017.07 1017.19 1017.31 1017.43 1017.55 1017.67 1017.71 1017.75 1017.75 1017.83 1017.91 1018.03 1018.15 1018.23 1018.35 1018.51 1018.75 1019.07 1019.35 1019.51 1019.71 1019.83 1019.95 1020.07 1020.19 1020.27 1020.35 1020.43 1020.47 1020.55 1020.59 1020.63 1020.67 1020.75
1012.75 1012.91 1013.11 1013.27 1013.47 1013.67 1013.79 1013.87 1013.99 1014.11 1014.23 1014.31 1014.43 1014.59 1014.79 1014.95 1015.15 1015.31 1015.43 1015.55 1015.67 1015.75 1015.83 1015.95 1016.07 1016.27 1016.39 1016.51 1016.59 1016.71 1016.79 1016.87 1016.91 1016.95 1017.03 1017.15 1017.27 1017.43 1017.55 1017.63 1017.75 1017.83 1017.79 1017.75 1017.83 1017.87 1017.99 1018.07 1018.19 1018.27 1018.39 1018.63 1019.03 1019.31 1019.47 1019.63 1019.75 1019.87 1019.99 1020.07 1020.15 1020.27 1020.31 1020.35 1020.43 1020.43 1020.47 1020.59 1020.71
1012.87 1012.99 1013.19 1013.43 1013.63 1013.83 1013.95 1014.03 1014.15 1014.23 1014.31 1014.47 1014.63 1014.79 1014.99 1015.15 1015.35 1015.47 1015.55 1015.67 1015.75 1015.83 1015.99 1016.11 1016.27 1016.43 1016.55 1016.67 1016.75 1016.87 1016.95 1016.99 1017.07 1017.15 1017.15 1017.27 1017.35 1017.51 1017.63 1017.75 1017.83 1017.91 1017.87 1017.79 1017.83 1017.87 1017.95 1017.99 1018.11 1018.19 1018.31 1018.51 1018.95 1019.27 1019.47 1019.63 1019.71 1019.83 1019.91 1019.99 1020.15 1020.19 1020.23 1020.23 1020.31 1020.39 1020.47 1020.59 1020.71
1013.03 1013.19 1013.35 1013.55 1013.79 1013.99 1014.11 1014.15 1014.27 1014.35 1014.47 1014.63 1014.83 1014.99 1015.19 1015.35 1015.47 1015.59 1015.71 1015.79 1015.87 1015.99 1016.15 1016.27 1016.43 1016.59 1016.71 1016.87 1016.91 1016.99 1017.07 1017.15 1017.19 1017.23 1017.27 1017.31 1017.43 1017.55 1017.71 1017.83 1017.91 1017.99 1017.95 1017.83 1017.83 1017.83 1017.91 1017.95 1018.03 1018.15 1018.27 1018.43 1018.87 1019.27 1019.51 1019.55 1019.71 1019.83 1019.91 1019.99 1020.07 1020.11 1020.15 1020.19 1020.27 1020.35 1020.43 1020.55 1020.67
1013.15 1013.31 1013.55 1013.71 1013.87 1014.07 1014.19 1014.27 1014.39 1014.51 1014.67 1014.87 1014.99 1015.15 1015.31 1015.47 1015.59 1015.71 1015.83 1015.91 1016.07 1016.23 1016.35 1016.47 1016.55 1016.71 1016.79 1016.87 1016.99 1017.07 1017.15 1017.15 1017.27 1017.35 1017.43 1017.43 1017.55 1017.67 1017.79 1017.91 1017.99 1017.99 1017.91 1017.83 1017.83 1017.83 1017.87 1017.91 1017.99 1018.07 1018.19 1018.39 1018.87 1019.23 1019.47 1019.55 1019.67 1019.79 1019.87 1019.95 1019.99 1020.03 1020.11 1020.15 1020.19 1020.27 1020.39 1020.47 1020.59
1013.27 1013.47 1013.71 1013.87 1014.03 1014.15 1014.31 1014.43 1014.55 1014.63 1014.83 1015.03 1015.23 1015.39 1015.47 1015.59 1015.75 1015.87 1015.95 1015.99 1016.15 1016.27 1016.47 1016.59 1016.71 1016.83 1016.87 1016.99 1017.03 1017.11 1017.15 1017.27 1017.39 1017.47 1017.55 1017.55 1017.63 1017.71 1017.83 1017.99 1018.03 1017.99 1017.91 1017.83 1017.83 1017.83 1017.87 1017.87 1017.95 1017.99 1018.15 1018.43 1018.87 1019.19 1019.43 1019.55 1019.63 1019.71 1019.83 1019.87 1019.99 1019.99 1020.03 1020.07 1020.15 1020.23 1020.31 1020.43 1020.55
1013.31 1013.55 1013.75 1013.99 1014.15 1014.27 1014.43 1014.55 1014.67 1014.83 1014.99 1015.19 1015.39 1015.55 1015.67 1015.79 1015.87 1015.99 1015.99 1015.99 1016.15 1016.35 1016.55 1016.67 1016.75 1016.87 1016.99 1017.07 1017.15 1017.19 1017.27 1017.31 1017.43 1017.55 1017.59 1017.63 1017.71 1017.79 1017.95 1018.03 1018.07 1017.99 1017.91 1017.87 1017.83 1017.83 1017.83 1017.87 1017.91 1017.95 1018.11 1018.43 1018.87 1019.15 1019.31 1019.43 1019.55 1019.67 1019.75 1019.83 1019.91 1019.95 1019.99 1019.99 1020.11 1020.23 1020.31 1020.43 1020.55
1013.39 1013.55 1013.75 1014.03 1014.23 1014.43 1014.55 1014.59 1014.79 1014.99 1015.19 1015.35 1015.51 1015.67 1015.79 1015.87 1015.99 1016.07 1016.07 1016.11 1016.27 1016.51 1016.67 1016.79 1016.87 1016.99 1017.07 1017.15 1017.23 1017.31 1017.39 1017.43 1017.47 1017.55 1017.63 1017.67 1017.71 1017.83 1017.99 1018.11 1018.15 1018.07 1017.99 1017.83 1017.83 1017.79 1017.83 1017.87 1017.91 1017.99 1018.15 1018.55 1018.87 1019.11 1019.27 1019.43 1019.55 1019.67 1019.75 1019.83 1019.87 1019.95 1019.99 1020.03 1020.15 1020.27 1020.43 1020.55 1020.63
1013.43 1013.55 1013.75 1013.99 1014.27 1014.47 1014.63 1014.71 1014.87 1015.11 1015.31 1015.51 1015.67 1015.75 1015.83 1015.95 1016.11 1016.15 1016.19 1016.19 1016.35 1016.59 1016.79 1016.91 1017.03 1017.15 1017.19 1017.27 1017.31 1017.43 1017.47 1017.51 1017.51 1017.59 1017.71 1017.79 1017.83 1017.87 1017.99 1018.07 1018.15 1018.15 1018.07 1017.91 1017.83 1017.83 1017.83 1017.83 1017.87 1017.99 1018.23 1018.59 1018.87 1019.07 1019.27 1019.43 1019.55 1019.71 1019.79 1019.87 1019.95 1020.03 1020.11 1020.15 1020.27 1020.35 1020.43 1020.51 1020.55
1013.55 1013.63 1013.83 1014.03 1014.31 1014.55 1014.71 1014.87 1014.99 1015.19 1015.39 1015.55 1015.71 1015.83 1015.91 1015.99 1016.15 1016.27 1016.27 1016.31 1016.43 1016.63 1016.83 1017.03 1017.15 1017.23 1017.27 1017.27 1017.35 1017.47 1017.55 1017.59 1017.63 1017.67 1017.71 1017.83 1017.87 1017.87 1017.95 1018.03 1018.15 1018.15 1018.11 1017.99 1017.87 1017.83 1017.83 1017.83 1017.87 1017.99 1018.27 1018.59 1018.83 1019.03 1019.27 1019.43 1019.63 1019.75 1019.87 1019.99 1020.03 1020.11 1020.19 1020.27 1020.31 1020.39 1020.43 1020.51 1020.39
1013.63 1013.75 1013.91 1014.15 1014.35 1014.59 1014.79 1014.99 1015.15 1015.31 1015.43 1015.55 1015.75 1015.87 1015.99 1016.07 1016.19 1016.27 1016.39 1016.47 1016.55 1016.71 1016.87 1017.07 1017.23 1017.27 1017.27 1017.27 1017.43 1017.55 1017.71 1017.75 1017.83 1017.83 1017.83 1017.87 1017.87 1017.87 1017.95 1018.07 1018.15 1018.19 1018.15 1018.03 1017.95 1017.95 1017.95 1017.95 1017.95 1018.07 1018.35 1018.67 1018.87 1019.03 1019.23 1019.43 1019.63 1019.79 1019.91 1019.99 1020.07 1020.15 1020.23 1020.31 1020.35 1020.43 1020.43 1020.47 1020.43
1013.71 1013.83 1014.03 1014.23 1014.43 1014.63 1014.87 1015.07 1015.27 1015.43 1015.51 1015.63 1015.75 1015.91 1015.99 1016.07 1016.27 1016.43 1016.47 1016.55 1016.71 1016.83 1016.95 1017.11 1017.27 1017.31 1017.31 1017.35 1017.51 1017.63 1017.75 1017.91 1017.99 1017.99 1017.99 1017.99 1017.99 1017.99 1018.03 1018.15 1018.23 1018.27 1018.27 1018.19 1018.11 1018.07 1018.03 1018.07 1018.07 1018.19 1018.47 1018.75 1018.91 1019.03 1019.23 1019.43 1019.59 1019.79 1019.91 1019.99 1020.07 1020.15 1020.23 1020.31 1020.35 1020.39 1020.43 1020.43 1020.43
Wind_Speed
7 7 6 6 6 6 5 5 5 6 6 6 7 7 7 7 7 7 6 6 6 7 6 6 7 6 6 8 10 11 11 11 11 11 11 11 11 10 9 9 9 9 9 9 8 7 7 6 4 3 3 3 2 2 1 1 3 4 5 5 5 5 6 7 6 6 6 5 4
8 7 7 7 7 6 5 5 5 5 5 5 6 6 7 6 6 6 7 7 6 6 6 5 6 6 7 8 10 11 11 11 11 11 11 11 10 9 9 9 9 9 9 9 8 7 6 6 5 4 3 3 2 2 1 1 3 4 5 6 5 5 5 6 6 6 6 5 4
8 7 7 7 7 7 6 5 6 6 6 6 6 6 6 6 6 6 6 6 6 5 5 5 5 6 8 9 9 10 10 11 11 11 10 9 8 8 8 8 9 9 9 8 8 7 6 6 5 5 4 3 4 3 3 2 2 3 5 6 5 4 4 4 5 5 5 4 5
8 8 8 8 9 9 8 7 7 7 7 6 5 5 6 5 5 5 5 5 5 5 5 5 6 6 7 8 9 9 9 10 10 10 9 8 8 8 8 8 8 8 8 8 8 7 7 7 5 5 5 5 6 5 4 3 3 3 3 4 4 4 4 4 4 4 4 4 5
8 8 8 8 10 10 9 8 9 8 7 6 6 5 5 5 4 4 4 5 6 6 6 6 6 6 7 7 9 9 9 9 10 9 8 7 8 8 9 9 9 8 8 8 8 8 8 8 5 4 5 6 5 5 5 5 5 4 3 2 3 3 4 4 4 4 4 4 4
8 8 8 8 9 9 9 8 9 9 8 6 7 7 6 5 5 5 6 7 6 6 6 6 6 6 6 7 8 9 9 9 8 8 7 7 8 8 9 9 9 8 8 8 9 9 9 8 5 5 5 5 5 5 5 7 5 4 3 2 2 3 3 4 4 4 4 4 4
8 8 9 9 9 9 8 8 8 8 8 7 8 9 8 7 7 8 8 7 6 5 6 6 6 7 7 7 8 8 8 8 7 7 7 7 7 7 8 8 8 8 8 8 9 9 8 8 6 5 5 5 4 5 6 7 6 5 4 3 2 2 3 4 4 4 5 6 6
7 8 9 9 10 10 9 9 8 8 7 7 8 10 10 10 10 9 8 7 6 6 6 6 7 7 8 8 8 8 8 8 7 7 7 7 7 7 7 8 8 8 8 8 9 9 8 7 5 5 5 5 4 5 6 8 7 6 5 4 3 2 2 2 3 4 5 6 7
6 7 8 9 9 9 9 9 9 9 9 8 9 10 10 10 10 9 8 6 6 6 6 6 7 7 8 8 8 8 8 7 7 7 6 7 7 7 7 7 8 8 8 8 8 9 8 6 5 5 5 4 4 5 6 8 8 7 6 5 4 3 2 2 3 4 5 6 6
7 7 7 8 8 9 9 9 9 9 10 9 9 9 9 9 9 8 7 6 6 6 6 6 7 7 8 8 8 8 7 7 7 7 7 7 7 8 8 7 8 8 7 7 7 8 8 6 6 5 5 5 5 6 7 8 8 8 7 5 5 4 3 2 3 4 5 5 6
8 7 8 8 8 8 8 8 8 8 8 8 8 8 8 8 7 7 6 5 6 6 7 7 7 8 8 8 7 7 6 6 6 6 7 7 7 7 7 7 8 8 8 7 7 7 7 6 6 6 6 5 6 7 8 9 9 9 8 5 6 6 5 3 3 4 4 5 5
8 8 8 8 8 8 8 8 8 7 7 7 7 7 7 7 7 6 6 6 7 7 7 7 8 8 8 7 7 6 6 6 6 7 7 7 7 8 8 8 8 8 8 8 7 6 6 6 7 7 7 6 6 7 9 11 10 10 9 7 7 7 6 5 4 4 4 4 4
8 8 8 8 8 8 8 8 7 7 7 7 7 7 7 6 6 7 7 7 7 7 6 6 7 7 7 6 6 6 6 6 7 7 7 7 7 8 8 8 8 8 8 8 7 7 7 7 7 8 8 7 7 8 9 12 11 11 10 9 8 8 7 7 6 5 4 4 4
8 8 8 8 8 8 8 8 7 6 7 7 7 7 6 6 6 7 7 7 7 7 6 6 6 6 6 6 6 6 6 6 7 7 7 7 7 8 8 8 8 8 8 7 8 8 8 8 8 8 8 9 8 9 10 11 11 11 10 10 10 10 9 8 7 7 6 5 5
7 8 8 8 8 8 8 7 6 6 6 7 6 6 6 5 6 6 7 7 7 6 6 6 6 6 6 6 6 6 6 6 7 7 7 8 8 8 9 9 9 9 8 8 8 8 8 8 8 8 9 9 9 9 10 10 10 10 10 10 11 10 9 9 8 7 7 7 7
7 7 8 8 8 8 7 7 6 6 6 6 6 6 6 5 6 6 6 7 6 6 6 7 6 6 5 5 6 6 6 6 7 7 8 8 8 9 9 9 9 9 9 9 8 8 8 8 8 8 9 9 9 9 10 10 9 8 9 9 9 9 8 8 8 8 8 9 8
7 7 7 8 8 8 8 7 6 6 6 6 6 6 6 6 5 6 7 7 6 6 6 7 6 6 5 5 5 6 6 7 7 7 8 8 9 9 9 9 9 9 9 9 9 8 8 7 7 7 8 8 8 8 8 8 7 7 7 7 7 7 8 8 9 9 10 10 9
7 7 8 8 9 9 8 8 7 7 7 7 7 6 6 6 6 6 6 7 7 7 7 7 6 6 6 6 6 6 6 7 8 8 8 8 8 8 9 8 8 8 8 9 9 8 8 7 7 7 7 7 7 7 7 7 7 7 7 7 7 7 7 8 9 9 10 9 9
7 7 8 8 9 9 8 8 8 7 7 7 6 6 6 6 7 7 7 6 7 7 7 7 6 6 6 7 7 7 7 7 8 8 7 7 7 8 8 8 7 8 8 8 8 8 8 8 8 8 7 7 7 7 7 7 6 7 7 7 7 7 7 8 9 9 9 9 8
8 8 8 8 8 8 8 8 7 6 6 6 6 7 7 7 7 7 7 7 6 6 7 7 6 6 6 6 7 6 6 5 6 6 6 6 6 7 7 7 7 7 8 8 8 8 8 8 9 9 8 8 8 8 7 7 7 7 7 6 7 7 7 7 7 7 7 8 8
7 7 7 7 7 7 6 6 5 5 5 6 6 7 7 7 7 7 6 6 5 5 6 6 6 6 6 6 6 5 5 4 5 5 5 6 6 6 7 7 7 7 7 7 7 8 8 9 9 9 9 9 9 8 8 8 8 7 7 6 6 6 6 6 6 6 7 7 7
5 5 4 5 5 5 5 4 5 5 5 6 6 6 6 6 5 5 5 5 5 5 5 5 6 6 6 6 5 5 4 3 4 4 5 5 6 6 6 7 7 8 7 7 7 8 8 9 9 9 9 9 8 9 9 9 8 8 7 7 6 6 5 5 5 6 6 6 6
4 3 3 3 4 5 5 5 5 5 5 5 5 5 5 5 4 4 4 4 4 4 4 4 4 4 5 5 5 5 4 4 3 4 4 4 5 5 6 6 7 8 8 7 7 7 8 8 8 8 8 8 8 8 9 9 8 8 7 7 6 5 5 5 5 5 5 5 5
4 4 4 4 4 5 5 5 6 6 6 5 5 5 5 5 5 4 4 4 4 4 4 3 3 3 4 4 5 5 5 5 4 4 4 4 5 5 6 6 6 7 7 6 7 8 8 7 6 6 7 7 7 8 8 8 7 7 7 7 6 6 5 5 4 5 5 5 5
5 5 5 5 5 5 5 6 6 6 5 5 5 5 5 5 5 5 5 4 4 4 4 4 4 4 4 4 5 5 5 5 5 5 4 4 5 5 5 5 5 5 5 6 10 11 11 9 7 6 6 6 7 7 7 6 6 7 7 7 6 6 5 4 4 4 5 5 5
5 6 6 6 6 6 6 6 6 6 5 5 5 5 5 4 4 5 5 4 4 4 4 4 4 4 4 4 4 4 4 4 5 6 6 6 6 5 5 5 4 4 5 7 12 14 14 12 11 9 7 6 6 6 6 5 6 6 6 6 6 6 6 5 5 5 5 5 5
6 6 6 6 6 6 6 5 5 5 5 5 5 5 4 4 4 5 5 5 4 4 4 4 4 4 4 4 4 4 3 3 4 5 6 6 6 6 5 4 4 4 5 9 13 14 14 14 13 12 10 7 6 6 5 5 5 6 6 6 6 6 7 7 6 6 5 5 5
6 6 6 6 6 6 5 5 5 6 5 5 5 5 4 5 5 5 5 5 4 4 3 3 3 3 3 3 4 4 4 3 4 5 5 6 6 6 5 4 4 4 6 10 13 14 14 14 14 14 12 9 6 5 5 5 5 5 5 5 6 6 6 6 6 6 6 5 5
6 6 7 7 6 6 5 5 5 5 5 5 5 5 5 5 6 5 5 5 4 4 3 2 2 2 3 3 3 3 3 3 3 4 4 5 5 5 4 4 4 5 7 11 12 13 13 13 14 14 14 12 7 5 4 5 5 5 5 5 5 6 6 6 5 5 6 6 5
6 7 7 7 7 6 5 5 5 5 5 5 5 6 7 6 6 5 5 4 4 3 2 2 3 3 3 3 3 3 3 2 3 4 4 5 5 4 4 3 3 4 7 11 11 12 12 13 13 14 14 13 8 5 4 4 5 5 5 5 5 6 6 6 6 6 6 5 5
7 7 7 7 7 6 5 4 5 5 5 6 7 7 7 6 5 4 4 3 3 3 3 3 4 4 4 3 3 3 3 3 3 3 4 5 5 4 3 3 2 3 6 10 10 11 11 12 13 13 13 13 8 6 5 5 5 5 5 5 5 6 6 6 6 6 5 4 4
7 7 7 7 7 6 5 5 5 6 6 7 7 7 6 5 4 3 3 3 3 3 4 4 4 4 4 3 3 3 3 3 3 3 3 4 4 3 3 2 2 2 5 8 9 10 10 11 12 12 12 13 9 6 5 5 5 5 5 5 5 6 6 5 4 4 4 4 3
7 7 7 7 7 6 5 6 6 6 7 7 7 6 6 5 4 3 3 3 3 3 4 4 4 4 3 3 3 3 3 3 3 3 3 4 4 4 3 2 1 2 4 7 8 9 9 10 11 11 12 12 8 7 5 5 4 4 3 3 4 4 4 4 4 3 4 4 4
7 7 7 7 7 6 6 6 6 7 7 7 6 5 5 4 4 4 3 3 3 3 3 3 3 3 3 3 3 3 3 3 3 3 3 4 4 4 3 2 1 2 5 7 7 8 8 9 10 11 11 11 8 6 5 5 4 3 3 3 3 3 4 4 4 4 4 5 4
8 8 8 7 7 7 7 6 7 7 7 7 6 5 4 4 4 3 3 3 3 3 3 3 3 2 2 3 3 3 3 3 3 3 4 4 4 4 3 2 0 2 5 6 7 7 8 8 9 10 10 9 7 6 5 5 4 4 4 4 4 4 4 4 4 4 4 4 4
8 8 8 8 7 7 7 7 7 7 7 7 6 5 4 4 3 2 2 3 4 4 3 2 2 2 3 3 3 3 3 3 4 3 4 4 4 4 3 2 0 2 4 6 6 7 7 8 9 9 8 7 6 5 5 5 4 4 5 4 4 4 4 4 3 3 3 3 3
7 8 9 8 7 7 7 7 7 7 7 6 5 5 4 3 2 2 2 3 4 4 3 3 3 3 2 2 2 2 2 3 4 4 4 4 4 4 3 2 1 2 3 5 6 7 7 7 8 8 7 6 5 5 4 4 4 4 4 4 3 3 2 2 2 2 2 3 3
7 8 9 9 8 7 7 7 7 7 7 6 4 3 3 3 2 2 2 3 3 3 3 3 3 2 2 3 3 3 3 3 4 4 4 4 4 4 4 3 2 2 3 4 6 6 7 7 8 7 7 6 6 5 4 4 3 3 2 2 1 1 1 2 2 2 2 3 4
7 8 8 9 8 8 7 7 7 7 6 5 4 3 3 2 2 2 2 2 3 3 3 3 3 2 3 4 4 4 3 3 3 3 3 3 3 4 4 3 2 2 3 4 5 6 6 6 7 7 8 7 6 5 4 4 3 2 2 1 1 1 1 1 1 1 1 3 5
7 7 8 8 8 8 7 7 6 5 5 5 5 4 3 2 2 2 2 3 3 3 4 4 3 3 4 5 5 4 4 3 3 2 2 2 3 4 4 3 2 2 2 3 4 4 5 5 6 7 8 6 5 4 4 4 3 3 2 1 1 1 1 1 1 1 1 2 5
6 7 8 8 8 8 8 7 6 5 4 5 5 4 3 3 3 2 3 3 3 4 4 4 4 4 4 5 5 5 4 3 3 3 2 2 2 3 3 3 2 1 1 2 3 3 3 3 4 6 7 6 5 4 4 4 3 2 2 1 1 1 1 0 0 1 2 2 3
Wind_Direction
169 169 168 165 165 165 165 165 164 165 166 168 170 171 173 174 177 180 182 183 187 190 192 193 194 193 189 183 185 190 196 199 199 198 197 196 195 192 187 182 181 180 179 180 179 181 186 192 186 172 154 156 164 169 169 157 155 153 151 148 144 143 143 145 147 147 146 144 143
169 167 163 160 159 157 156 158 160 164 168 172 173 173 174 176 178 180 183 187 190 190 189 190 189 187 184 184 187 190 194 198 198 199 199 198 194 188 183 181 182 181 179 179 176 175 176 177 169 158 146 137 138 143 153 168 159 154 150 149 146 143 143 146 151 150 148 145 143
167 164 161 159 158 158 159 160 163 166 170 175 175 174 174 177 179 181 184 188 186 184 184 186 185 183 182 183 188 191 194 197 197 198 199 198 192 186 182 181 180 179 178 176 173 170 169 169 165 159 153 146 150 156 164 177 171 161 155 155 149 145 146 149 152 151 148 146 147
164 163 162 161 161 162 164 166 167 170 172 174 172 172 175 178 179 179 180 180 179 181 184 185 184 183 182 183 188 192 195 197 196 197 197 194 187 184 181 179 176 176 176 172 167 163 162 163 163 161 158 158 165 168 170 167 171 169 164 159 151 150 151 153 155 154 151 151 153
165 166 166 165 164 165 167 167 169 172 173 171 169 172 174 176 173 171 171 174 183 187 187 181 180 181 182 182 186 191 194 196 196 195 193 188 184 182 180 177 176 176 173 166 161 159 159 160 163 165 166 169 175 175 168 158 161 163 161 157 157 155 154 154 156 156 154 153 155
167 168 166 164 165 166 168 169 170 172 171 168 168 171 173 174 172 173 178 184 187 183 177 173 174 176 178 180 185 189 193 195 195 193 189 186 184 181 178 178 176 173 167 160 157 157 159 161 165 169 173 174 177 168 156 150 153 153 153 159 170 164 156 156 158 156 153 152 154
167 166 165 163 165 167 169 170 170 170 169 167 171 173 176 177 178 180 182 183 177 172 170 174 176 177 178 180 186 190 192 193 192 188 185 183 181 179 177 175 170 164 160 156 156 158 161 164 167 173 176 175 172 161 153 151 151 152 155 165 173 166 159 159 157 154 154 155 158
164 163 163 162 165 167 168 167 167 168 169 171 176 179 179 179 180 180 178 173 170 171 175 178 179 178 178 181 186 190 191 190 188 184 179 177 176 174 171 166 161 159 159 158 159 162 166 168 172 175 177 177 173 163 156 152 150 152 157 164 168 170 165 158 155 154 156 158 162
161 161 160 160 165 167 166 165 166 169 172 177 181 182 181 178 177 174 173 173 173 173 174 177 178 177 178 182 186 189 188 186 182 178 174 171 169 168 165 162 160 159 160 161 164 166 168 171 177 180 179 176 170 161 154 151 151 153 158 161 164 165 162 148 151 152 154 157 165
161 160 158 159 165 165 163 163 167 171 174 178 181 180 178 175 173 174 174 174 167 168 172 176 175 176 179 184 187 187 185 181 178 174 172 170 168 165 164 163 163 163 163 165 167 169 171 175 181 182 179 173 162 154 151 154 156 161 165 165 163 159 154 146 148 150 154 159 166
162 161 160 162 164 161 159 161 167 172 174 176 176 175 173 174 174 174 170 158 157 167 176 177 174 177 182 186 187 185 181 176 173 172 171 171 167 165 165 168 169 168 168 169 169 171 175 181 183 181 174 163 152 151 154 160 164 169 171 168 159 154 152 153 153 154 156 159 163
162 161 160 160 159 158 157 160 167 171 173 172 171 172 173 175 172 166 158 152 162 172 179 176 176 179 183 186 185 181 176 171 170 169 170 171 167 166 168 171 173 172 171 170 170 174 180 186 185 178 170 158 154 157 162 167 170 172 171 163 156 154 157 162 164 162 158 153 155
160 159 158 156 155 155 157 161 165 169 170 171 171 172 173 172 165 159 156 160 169 173 175 175 177 180 183 184 182 178 173 170 169 169 170 170 168 168 170 173 174 173 172 171 173 178 183 188 185 178 171 165 166 168 170 172 174 173 170 162 159 160 164 167 168 164 158 153 159
156 155 155 153 153 155 158 162 165 168 170 171 172 171 169 164 161 160 161 167 171 171 170 172 179 183 185 184 179 174 170 168 167 167 168 169 169 170 172 175 175 174 173 173 177 181 184 186 183 179 175 172 173 174 175 177 177 175 171 166 166 167 168 168 166 163 162 168 172
151 152 152 151 154 157 160 163 165 168 170 171 171 167 163 160 162 163 165 169 170 168 168 171 181 186 185 180 173 168 165 164 165 167 169 170 172 173 176 177 177 176 175 174 178 183 186 185 182 179 177 177 177 177 179 182 182 179 175 171 170 169 167 166 164 165 171 181 180
149 150 150 151 156 159 162 165 166 167 169 171 167 163 160 161 162 164 166 169 168 169 171 177 182 182 179 173 165 161 159 163 167 170 173 174 176 177 178 178 178 176 175 174 177 182 186 184 181 180 179 178 177 178 181 184 183 180 177 173 170 168 166 165 166 174 183 189 184
148 150 151 154 159 162 165 168 167 168 168 168 164 163 162 161 163 166 170 171 170 172 177 182 180 175 169 168 163 162 163 169 174 177 180 179 178 178 179 179 177 173 171 172 175 178 181 181 179 179 178 176 176 177 178 180 178 177 175 173 172 170 171 172 176 184 190 191 184
149 152 155 159 163 166 168 169 168 168 168 166 164 164 164 162 164 169 173 174 173 176 178 180 174 168 166 169 170 172 174 178 182 185 185 182 178 177 177 178 173 168 167 170 173 175 175 174 174 174 174 173 172 173 173 173 172 172 174 176 179 181 183 185 188 191 192 189 182
153 156 160 164 167 169 170 170 169 168 167 164 163 162 163 163 166 171 175 179 179 176 172 169 167 166 168 172 175 178 181 183 185 185 183 177 174 174 175 174 167 164 165 169 171 171 170 169 169 170 170 169 168 168 169 170 172 175 179 185 190 192 194 196 195 193 189 184 177
158 162 166 170 170 170 170 169 166 163 161 158 158 159 162 165 168 173 177 181 177 169 163 162 165 168 172 174 176 179 182 181 180 178 175 168 167 169 170 167 160 160 163 168 168 167 167 167 168 169 168 167 167 168 170 173 178 183 187 193 198 200 201 200 195 190 185 180 173
161 164 167 167 165 164 163 160 154 150 148 150 154 159 163 167 171 174 174 169 159 154 156 163 168 171 172 172 172 174 173 165 164 165 165 161 163 164 163 158 155 157 162 167 165 164 164 166 168 169 169 169 170 171 173 177 183 188 193 200 203 203 201 197 190 185 182 178 173
159 158 155 152 150 147 144 136 133 134 138 145 152 157 161 162 164 160 152 141 141 148 157 167 170 170 169 167 164 159 151 140 148 154 158 159 160 159 157 152 152 156 161 166 164 163 163 165 167 168 169 170 172 174 177 181 186 190 195 201 202 199 195 189 184 182 180 178 173
139 132 128 127 126 125 123 120 122 127 133 140 146 150 151 150 144 135 128 130 142 151 159 163 163 162 159 154 150 144 138 133 139 146 149 149 150 151 151 149 152 158 163 166 162 160 160 162 164 166 167 169 172 178 183 187 188 191 194 198 196 191 186 184 180 176 175 174 170
119 116 114 113 116 118 120 121 125 129 134 140 141 141 139 135 128 124 125 132 141 145 147 145 141 137 135 137 139 140 141 141 142 141 138 137 139 143 145 147 154 159 163 164 163 162 161 159 161 164 167 170 177 183 188 190 190 190 192 193 189 184 180 177 174 172 171 171 169
114 114 113 114 118 120 123 126 131 134 137 137 134 131 129 127 125 125 126 128 129 129 127 124 119 118 120 126 131 136 140 143 145 141 136 133 135 139 142 147 154 160 163 164 169 169 167 164 164 165 170 175 183 188 191 191 191 191 191 189 184 179 175 173 174 175 175 175 174
113 113 115 118 120 122 125 130 132 132 130 126 124 124 124 123 122 121 120 119 114 110 109 111 113 117 122 124 127 130 134 139 143 143 142 141 142 144 148 152 158 160 165 171 175 176 175 173 172 171 173 179 186 189 190 191 193 193 190 187 181 177 175 178 182 184 184 183 180
114 115 116 117 118 120 124 126 124 123 121 121 122 122 120 116 114 113 112 110 104 98 97 101 111 121 126 125 129 132 135 136 141 143 144 146 149 152 156 159 160 161 167 176 179 180 181 181 181 179 179 181 186 187 187 189 189 187 184 181 180 180 181 184 185 185 185 185 181
119 119 118 115 115 116 117 115 116 118 120 120 119 117 112 108 108 109 108 106 101 96 94 96 105 112 116 120 128 131 133 133 138 141 145 148 153 157 160 161 158 162 171 179 181 184 187 188 189 187 185 183 184 182 180 178 179 180 180 180 181 183 185 186 183 181 180 180 180
123 121 119 117 116 114 111 110 115 117 117 115 111 108 106 105 107 108 107 106 103 102 101 100 97 95 100 112 115 114 115 121 132 137 140 145 151 154 156 154 152 164 175 182 184 188 192 195 197 195 191 186 181 175 173 172 174 175 177 180 183 185 187 186 181 180 179 179 180
122 121 120 117 114 111 108 108 110 111 110 108 106 105 105 105 105 105 105 104 104 105 106 100 95 95 98 104 101 100 101 106 120 131 138 145 149 151 150 147 147 167 180 185 188 193 197 201 203 202 197 186 175 165 164 167 169 172 177 182 184 185 185 184 182 182 182 180 177
120 119 117 114 110 106 104 102 103 104 105 106 106 106 106 103 102 101 99 99 98 97 93 86 91 92 92 88 89 93 95 94 104 122 136 144 147 145 140 134 140 170 188 191 194 198 202 206 208 206 199 185 170 161 162 167 170 173 177 182 184 185 185 185 185 183 180 172 164
118 117 114 111 108 105 102 100 101 103 104 104 105 104 103 100 95 90 85 86 92 92 89 85 91 92 87 78 79 82 86 90 98 114 127 136 137 134 128 123 132 174 195 197 199 203 206 209 209 206 199 183 165 156 158 164 168 170 174 178 181 183 184 185 182 175 166 156 152
116 115 113 112 110 107 104 103 104 103 103 101 101 100 99 96 88 80 73 72 81 87 91 92 97 99 99 95 93 91 91 95 102 111 119 124 124 122 119 116 124 187 201 202 204 207 209 209 208 205 197 179 160 150 154 158 162 165 169 174 179 180 179 175 167 160 157 158 162
117 114 113 113 113 111 108 107 106 104 101 98 96 95 95 95 91 86 79 74 77 80 82 86 95 101 107 108 111 110 109 105 101 102 107 113 115 116 114 104 104 204 205 204 206 208 209 209 207 203 194 173 153 145 149 155 160 164 168 172 173 173 172 170 166 164 166 168 171
121 118 115 114 114 114 112 110 108 105 103 100 96 93 90 90 92 93 93 91 86 80 75 73 80 85 85 83 95 105 112 110 101 101 105 111 114 116 114 101 97 212 208 204 208 209 209 208 206 201 190 161 143 141 151 157 163 167 170 171 173 175 177 178 175 172 169 168 169
126 122 120 118 117 116 115 114 111 107 105 104 101 96 90 84 84 88 93 94 88 83 77 69 70 72 73 71 75 89 105 115 113 111 113 116 119 120 119 113 159 218 212 205 208 210 210 207 205 199 184 147 135 141 153 159 164 167 170 172 178 182 183 180 173 165 158 157 161
128 126 124 122 121 120 120 118 114 111 110 108 105 102 98 92 83 77 81 90 89 88 84 72 71 75 80 85 85 91 103 116 120 121 122 125 125 126 127 133 181 227 225 211 209 209 209 206 203 190 167 126 131 141 152 157 160 163 168 175 180 178 169 155 144 140 142 151 166
129 127 126 126 125 125 123 120 119 118 117 114 109 105 102 98 90 79 77 90 99 101 97 83 80 84 93 100 98 93 91 99 115 124 129 133 133 133 136 146 181 230 238 223 212 210 208 205 198 177 150 123 134 142 147 149 150 153 159 165 154 123 98 95 108 126 148 171 190
129 128 127 128 129 128 126 123 123 123 122 119 113 106 99 91 91 84 79 85 101 107 107 102 101 105 110 109 100 91 80 73 92 112 128 140 144 143 144 148 173 216 239 231 218 212 209 206 191 164 141 129 135 139 139 137 133 131 126 116 96 80 73 78 102 133 177 202 215
127 126 127 128 130 129 127 123 122 122 121 120 117 112 104 96 96 88 79 75 85 95 102 107 111 114 113 109 103 96 84 64 60 77 109 136 148 150 147 143 160 195 234 239 225 218 211 208 181 152 134 125 128 129 128 124 120 116 111 103 101 93 85 88 130 178 206 222 229
122 123 124 127 128 128 126 123 120 117 115 116 118 118 113 104 95 85 77 74 78 87 97 104 107 106 103 101 100 98 91 74 53 49 62 92 116 130 132 127 141 167 253 275 255 235 218 208 170 141 127 119 119 119 117 114 113 115 121 124 120 119 118 115 205 210 214 221 231